Home   Weather   Halton Hills   Past weeks

Flag for Canada Past Weather in Halton Hills, Ontario, Canada — Yesterday and Last 2 Weeks

Now
36 °F

Mostly cloudy.


Feels Like: 29 °F
Forecast: 31 / 35 °F
Wind: 8 mph from East

Location: Toronto Pearson International Airport

Current Time: Dec 4, 2016 at 1:28:51 pm

Latest Report: Dec 4, 2016 at 1:00 pm


Visibility: 15 mi

Pressure: 30.23 "Hg

Humidity: 70%

Dew Point: 27 °F

Location of Halton HillsLocation

Past Weather in Halton Hills — Graph

°F

Halton Hills Temperature Yesterday

Maximum temperature yesterday: 43 °F (at 12:00 pm)
Minimum temperature yesterday: 34 °F (at 4:00 am)
Average temperature yesterday: 38 °F

High & Low Weather Summary for the Past Weeks

 TemperatureHumidityPressure
High57 °F (Nov 29, 1:00 pm)100% (Nov 23, 10:00 pm)30.40 "Hg (Nov 23, 10:00 pm)
Low25 °F (Nov 22, 11:00 pm)44% (Nov 21, 12:00 pm)29.43 "Hg (Nov 30, 10:00 pm)
Average38 °F77%29.99 "Hg
* Reported Nov 19 12:00 pm — Dec 4 12:00 pm, Halton Hills, Weather by CustomWeather, © 2016

Note: Actual official high and low records may vary slightly from our data, if they occured in-between our weather recording intervals... More about our weather records

Advertising

Halton Hills Weather History for the Previous 24 Hours

Scroll right to see more
 ConditionsComfort  
Time TempWeatherWind HumidityBarometerVisibility
12:00 pm
Sun, Dec 4
36 °FOvercast.6 mph70%30.26 "Hg15 mi
11:00 am34 °FPartly sunny.6 mph70%30.28 "Hg15 mi
10:00 am34 °FPartly sunny.3 mph70%30.29 "Hg15 mi
9:00 am34 °FPartly sunny.5 mph75%30.28 "Hg15 mi
8:00 am34 °FPartly sunny.2 mph75%30.27 "Hg15 mi
7:00 am34 °FPassing clouds.7 mph70%30.26 "Hg15 mi
6:00 am34 °FPassing clouds.5 mph70%30.26 "Hg15 mi
5:00 am34 °FPassing clouds.5 mph75%30.27 "Hg15 mi
4:00 am34 °FPartly cloudy.3 mph81%30.28 "Hg15 mi
3:00 am36 °FPassing clouds.8 mph75%30.29 "Hg15 mi
2:00 am36 °FPassing clouds.7 mph81%30.27 "Hg15 mi
1:00 am34 °FPassing clouds.6 mph87%30.26 "Hg15 mi
12:00 am36 °FPartly cloudy.6 mph81%30.27 "Hg15 mi
11:00 pm
Sat, Dec 3
37 °FPassing clouds.6 mph75%30.25 "Hg15 mi
10:00 pm37 °FPassing clouds.6 mph75%30.24 "Hg15 mi
9:00 pm37 °FPassing clouds.9 mph75%30.22 "Hg15 mi
8:00 pm37 °FOvercast.9 mph75%30.24 "Hg15 mi
7:00 pm39 °FOvercast.15 mph65%30.24 "Hg15 mi
6:00 pm39 °FMostly cloudy.15 mph65%30.24 "Hg15 mi
5:00 pm39 °FOvercast.12 mph61%30.23 "Hg15 mi
4:00 pm39 °FOvercast.14 mph61%30.23 "Hg15 mi
3:00 pm39 °FOvercast.20 mph52%30.19 "Hg15 mi
2:00 pm41 °FPartly sunny.21 mph45%30.17 "Hg15 mi
1:00 pm41 °FPartly sunny.23 mph49%30.16 "Hg15 mi
Weather by CustomWeather, © 2016

See weather overviewHow to use our weather pages